DW2770 Cefalu IT current weather conditions

sailwx.info

Wind from 248 at 8 knots gusting 8

Air temperature 17.2° C
Dewpoint 13.7° C

Last reported at 2019-May-23 23:00 UTC.
Time now 2019-May-24 00:54 UTC

Location: N 38°02' E 014°02'.
View on Google Maps.

See reports from other nearby stations

  
Tides and Currents Weather Stations Pressure Air Temp Water Temp Dewpoint Dewpoint Depression Visibility Wind Speed Wind Dir Waves Ship Positions
date/time (UTC)wind fromknots sea level pressurealtimeterstation pressurevisibilityair tempwater tempwave heightnotes
2019-May-23 23:00 248 8 gusting 8 17.2
2019-May-23 22:50 225 5 gusting 13 16.7
2019-May-23 22:30 243 8 gusting 10 16.7
2019-May-23 22:20 267 9 gusting 13 16.7
2019-May-23 22:10 202 10 gusting 13 16.7
2019-May-23 22:00 209 12 gusting 13 16.7
2019-May-23 21:40 225 8 gusting 10 16.7
2019-May-23 21:30 022 2 gusting 6 17.2
2019-May-23 21:20 292 7 gusting 8 17.2
2019-May-23 21:10 225 6 gusting 7 17.2
2019-May-23 21:00 263 3 gusting 6 17.2
2019-May-23 20:50 202 3 gusting 6 17.2
2019-May-23 20:40 248 6 gusting 7 17.2
2019-May-23 20:30 209 7 gusting 7 17.2
2019-May-23 20:20 225 2 gusting 6 17.2
2019-May-23 20:10 202 6 gusting 10 17.2
2019-May-23 19:50 202 3 gusting 6 17.2
2019-May-23 19:40 225 5 gusting 8 17.2
2019-May-23 19:30 225 4 gusting 7 17.2
2019-May-23 19:20 180 4 gusting 8 17.2
2019-May-23 19:10 225 8 gusting 10 17.2
2019-May-23 19:00 202 6 gusting 10 17.2
2019-May-23 18:50 202 5 gusting 7 17.2
2019-May-23 18:40 270 1 gusting 7 17.8
2019-May-23 18:30 240 4 gusting 7 17.8
2019-May-23 18:20 225 3 gusting 5 18.3
2019-May-23 18:10 248 2 gusting 7 18.3
2019-May-23 17:50 270 1 gusting 5 18.9
2019-May-23 17:40 270 2 gusting 4 18.9
2019-May-23 17:30 279 2 gusting 5 18.9
2019-May-23 17:10 248 4 gusting 6 19.4
2019-May-23 16:40 315 2 gusting 5 19.4
2019-May-23 16:30 315 5 gusting 5 19.4
2019-May-23 16:20 315 2 gusting 5 20.0
2019-May-23 16:00 309 2 gusting 2 20.0
2019-May-23 15:50 247 1 gusting 6 20.0
2019-May-23 15:40 202 6 gusting 6 20.6
2019-May-23 15:20 250 6 gusting 6 20.6
2019-May-23 15:00 024 1 gusting 5 19.4
2019-May-23 14:20 023 2 gusting 2 20.6
2019-May-23 14:10 068 2 gusting 5 20.6
2019-May-23 13:50 089 1 gusting 4 20.6
2019-May-23 13:40 045 4 gusting 6 20.6
2019-May-23 13:30 049 3 gusting 6 20.6
2019-May-23 13:20 068 6 gusting 6 20.6
2019-May-23 13:00 068 3 gusting 6 20.6
2019-May-23 12:40 045 1 gusting 6 20.6
2019-May-23 12:30 048 3 gusting 6 20.6
2019-May-23 12:00 045 2 gusting 6 20.6
2019-May-23 11:50 045 4 gusting 5 20.6
2019-May-23 11:10 068 2 gusting 5 19.4
2019-May-23 11:00 068 4 gusting 4 18.9
2019-May-23 10:50 040 4 gusting 4 18.9
2019-May-23 10:00 068 2 gusting 6 18.3
2019-May-23 09:50 063 1 gusting 6 18.3
2019-May-23 09:40 045 5 gusting 5 18.3
2019-May-23 09:30 045 1 gusting 5 18.3
2019-May-23 09:20 039 2 gusting 4 18.3
2019-May-23 09:00 045 1 gusting 2 17.8
2019-May-23 08:50 17.8
2019-May-23 08:40 022 3 gusting 4 18.3
2019-May-23 08:20 092 3 gusting 5 18.3
2019-May-23 08:00 068 1 gusting 4 18.3
2019-May-23 07:50 059 4 gusting 5 17.8
2019-May-23 07:40 090 2 gusting 2 17.8
2019-May-23 07:20 264 1 gusting 4 17.8
2019-May-23 07:10 270 0 gusting 2 17.8
2019-May-23 07:00 292 1 gusting 2 17.8
2019-May-23 06:30 292 0 gusting 0 17.8
2019-May-23 06:20 045 0 gusting 0 17.8
2019-May-23 06:10 045 0 gusting 1 17.2
2019-May-23 05:50 270 17.2
2019-May-23 05:40 270 16.7
2019-May-23 05:30 225 1 gusting 2 16.7
2019-May-23 05:20 213 1 gusting 2 16.7
2019-May-23 05:10 225 1 gusting 1 16.1
2019-May-23 04:40 180 2 gusting 5 16.1
2019-May-23 04:20 202 2 gusting 5 16.1
2019-May-23 03:50 225 1 gusting 1 15.6
2019-May-23 03:40 180 1 gusting 2 15.6
2019-May-23 03:30 180 0 gusting 0 15.6
2019-May-23 03:00 180 0 gusting 2 16.1
2019-May-23 02:50 166 0 gusting 2 15.6
2019-May-23 02:40 202 1 gusting 2 15.6
2019-May-23 02:30 202 2 gusting 2 15.0
2019-May-23 02:20 192 0 gusting 2 15.0
2019-May-23 02:10 202 1 gusting 1 15.6
2019-May-23 02:00 135 15.6
2019-May-23 01:40 158 1 gusting 2 15.6
2019-May-23 01:30 158 1 gusting 4 15.6
2019-May-23 01:20 163 1 gusting 4 15.6
2019-May-23 01:10 180 3 gusting 4 15.6
2019-May-23 01:00 158 15.0
2019-May-23 00:50 171 0 gusting 0 15.0
2019-May-23 00:30 112 15.0
2019-May-23 00:10 135 0 gusting 2 15.0
2019-May-23 00:00 158 2 gusting 2 15.6
2019-May-22 23:50 158 15.6
2019-May-22 23:40 135 15.6
2019-May-22 23:30 158 1 gusting 2 15.6
2019-May-22 23:20 158 1 gusting 1 16.1
2019-May-22 23:10 135 2 gusting 2 16.1
2019-May-22 23:00 180 2 gusting 4 15.6
2019-May-22 22:50 158 0 gusting 2 15.6
2019-May-22 22:40 158 4 gusting 4 15.6
2019-May-22 22:30 135 1 gusting 4 16.1
2019-May-22 22:20 180 1 gusting 2 16.1
2019-May-22 22:00 158 2 gusting 2 16.1
2019-May-22 21:50 173 1 gusting 1 16.1
2019-May-22 21:30 158 1 gusting 2 16.1
2019-May-22 21:20 194 1 gusting 1 16.7
2019-May-22 20:50 142 2 gusting 2 16.7
2019-May-22 20:40 158 1 gusting 2 16.7
2019-May-22 20:20 154 0 gusting 4 16.7
2019-May-22 20:10 180 1 gusting 4 16.1
2019-May-22 19:50 194 0 gusting 0 16.7
2019-May-22 19:40 161 16.7
2019-May-22 19:30 158 0 gusting 2 16.7
2019-May-22 19:20 338 16.7
2019-May-22 19:00 158 0 gusting 0 16.7
2019-May-22 18:50 158 0 gusting 2 17.2
2019-May-22 18:30 180 0 gusting 1 17.8
2019-May-22 18:20 201 18.3
2019-May-22 18:00 18.3
2019-May-22 17:50 050 18.3
2019-May-22 17:40 045 18.3
2019-May-22 17:10 045 0 gusting 1 18.9
2019-May-22 17:00 045 0 gusting 1 18.9
2019-May-22 16:50 023 0 gusting 1 18.3
2019-May-22 16:30 045 18.3
2019-May-22 16:10 045 2 gusting 5 18.3
2019-May-22 16:00 045 1 gusting 2 18.3
2019-May-22 15:40 045 2 gusting 5 18.9
2019-May-22 15:30 068 0 gusting 2 18.9
2019-May-22 15:20 045 2 gusting 4 18.9
2019-May-22 15:10 068 2 gusting 4 18.9
2019-May-22 15:00 068 2 gusting 2 18.9
2019-May-22 14:50 045 2 gusting 4 19.4
2019-May-22 14:40 045 4 gusting 5 20.0
2019-May-22 14:30 068 3 gusting 5 20.0
2019-May-22 14:20 068 3 gusting 6 19.4
2019-May-22 14:10 063 4 gusting 4 20.6
2019-May-22 14:00 112 2 gusting 4 20.6
2019-May-22 13:50 068 2 gusting 4 20.0
2019-May-22 13:40 068 3 gusting 4 20.6
2019-May-22 13:30 068 2 gusting 5 20.6
2019-May-22 13:20 068 4 gusting 5 20.6
2019-May-22 13:10 045 4 gusting 6 20.6
2019-May-22 13:00 045 5 gusting 6 20.6
2019-May-22 12:50 068 5 gusting 6 20.6
2019-May-22 12:10 061 5 gusting 5 20.0
2019-May-22 12:00 068 2 gusting 5 20.6
2019-May-22 11:50 068 4 gusting 6 20.6
2019-May-22 11:30 112 5 gusting 6 20.0
2019-May-22 11:20 068 4 gusting 5 20.0
2019-May-22 11:10 054 4 gusting 6 20.0
2019-May-22 11:00 045 3 gusting 6 20.0
2019-May-22 10:40 082 3 gusting 6 20.0
2019-May-22 10:30 068 5 gusting 6 20.0
2019-May-22 10:20 068 1 gusting 5 20.0
2019-May-22 10:10 058 5 gusting 5 19.4
2019-May-22 10:00 112 3 gusting 4 20.0
2019-May-22 09:50 090 1 gusting 6 19.4
2019-May-22 09:40 045 6 gusting 6 18.3
2019-May-22 09:30 045 4 gusting 6 18.9
2019-May-22 09:20 068 2 gusting 4 19.4
2019-May-22 09:10 112 0 gusting 2 20.6
2019-May-22 09:00 068 1 gusting 4 21.1
2019-May-22 08:50 090 1 gusting 1 21.1
2019-May-22 08:40 045 21.1
2019-May-22 08:10 048 20.0
2019-May-22 08:00 022 19.4
2019-May-22 07:50 225 1 gusting 1 18.9
2019-May-22 07:40 322 1 gusting 2 18.3
2019-May-22 07:20 292 2 gusting 2 18.3
2019-May-22 07:10 275 2 gusting 2 18.3
2019-May-22 07:00 180 1 gusting 2 18.3
2019-May-22 06:50 225 18.3
2019-May-22 06:40 202 2 gusting 2 17.8
2019-May-22 06:30 225 0 gusting 1 17.8
2019-May-22 05:50 202 2 gusting 2 18.3
2019-May-22 05:40 241 0 gusting 1 17.8
2019-May-22 05:30 202 1 gusting 2 17.2
2019-May-22 05:20 248 2 gusting 6 17.2
2019-May-22 05:10 202 1 gusting 1 17.8
2019-May-22 05:00 158 17.8
2019-May-22 04:50 180 0 gusting 1 17.2
2019-May-22 04:20 202 16.1
2019-May-22 04:10 180 0 gusting 2 16.7
2019-May-22 03:50 135 0 gusting 0 16.7
2019-May-22 03:40 122 16.7
2019-May-22 03:20 180 1 gusting 2 16.7
2019-May-22 03:10 180 1 gusting 2 16.7
2019-May-22 02:40 180 1 gusting 2 16.7
2019-May-22 02:30 185 2 gusting 2 16.7
2019-May-22 02:20 180 2 gusting 2 16.7
2019-May-22 02:10 180 0 gusting 1 16.7
2019-May-22 02:00 180 16.1
2019-May-22 01:40 180 4 gusting 4 15.6
2019-May-22 01:30 175 1 gusting 1 15.6
2019-May-22 01:20 158 0 gusting 1 16.1
2019-May-22 01:10 158 15.6
2019-May-22 00:50 158 16.1
2019-May-22 00:40 156 0 gusting 1 15.6
2019-May-22 00:30 144 0 gusting 1 16.1
2019-May-22 00:20 158 1 gusting 1 16.1
2019-May-22 00:10 135 0 gusting 0 15.6
2019-May-22 00:00 112 16.1